Location: Pensacola
(30.4142°N, 87.2155°W)
Time: 18:00:25
(UTC-05:00)

AO-27 - Pass Details

Date: 01 June 2024
Orbit: 783 x 797 km, 98.8° (Epoch: 21 June)

Event Time Altitude Azimuth Distance (km) Brightness Sun altitude
Exits shadow 21:00:45 21° 137° (SE) 1,715 8.8 -14.4°
Maximum altitude 21:03:56 47° 73° (ENE) 1,040 8.0 -14.9°
Drops below altitude 10° 21:08:53 10° 1° (N) 2,353 10.6 -15.8°
Sets 21:11:17 0° 355° (N) 3,283 11.5 -16.2°
